Location: Ash Shall?l al Awwal
(24.0167°N, 32.8667°E)
Time: 19:37:39
(UTC+00:00)

Meteor 1-5 Rocket - Pass Details

Date: 02 March 2021
Orbit: 790 x 914 km, 81.2° (Epoch: 10 April)

Event Time Altitude Azimuth Distance (km) Brightness Sun altitude
Rises 16:53:30 0° 178° (S) 3,270 7.3 -14.9°
Reaches altitude 10° 16:55:52 10° 176° (S) 2,344 6.5 -15.4°
Maximum altitude 17:01:05 65° 95° (E) 870 4.0 -16.6°
Drops below altitude 10° 17:06:24 10° 14° (NNE) 2,390 6.4 -17.8°
Sets 17:08:50 0° 11° (NNE) 3,339 7.2 -18.4°
